This demonstration page uses our WeatherBlox Daily Observations layout. Learn more.

Left ArrowRight Arrow

40.92945, -100.16068

Hourly Observations for August 8, 2022

Temp ( °F °C ) Dew Point ( °F °C ) Humidity (%) Winds ( mph kmh ) Pressure ( in mb ) Visibility ( mi km ) Precip ( " mm )
12:15 am 00:15 Clear 62 16.7 61 16 96 96 Calm 30.10 1019 10 16 0.00 0.00
12:35 am 00:35 Clear 61 16.2 60 15.5 96 96 NNW 5 7 30.11 1020 10 16 0.00 0.00
12:55 am 00:55 Clear 61 16.2 60 15.4 95 95 NW 3 6 30.12 1020 10 16 0.00 0.00
1:15 am 01:15 Clear 61 16 59 15.2 95 95 WNW 3 6 30.13 1020 10 16 0.00 0.00
1:35 am 01:35 Clear 60 15.5 59 14.9 96 96 NW 3 6 30.13 1020 10 16 0.00 0.00
1:55 am 01:55 Clear 60 15.5 58 14.7 95 95 NW 6 9 30.13 1020 10 16 0.00 0.00
2:15 am 02:15 Clear 60 15.3 58 14.4 94 94 Calm 30.14 1021 10 16 0.00 0.00
2:35 am 02:35 Clear 59 15 57 14 94 94 NW 6 9 30.15 1021 10 16 0.00 0.00
2:55 am 02:55 Clear 58 14.6 57 13.7 94 94 NW 7 11 30.16 1021 10 16 0.00 0.00
3:15 am 03:15 Clear 58 14.2 56 13.4 95 95 NNW 6 9 30.15 1021 10 16 0.00 0.00
3:35 am 03:35 Clear 58 14.2 56 13.1 93 93 Calm 30.16 1021 10 16 0.00 0.00
3:55 am 03:55 Clear 57 14.1 56 13.1 94 94 NW 5 7 30.16 1021 10 16 0.00 0.00
4:15 am 04:15 Clear 57 13.9 56 13.1 95 95 WNW 5 7 30.17 1022 10 16 0.00 0.00
4:35 am 04:35 Clear 57 14 56 13.2 95 95 WNW 3 6 30.16 1021 10 16 0.00 0.00
4:55 am 04:55 Clear 56 13.5 55 12.8 96 96 NW 5 7 30.16 1021 10 16 0.00 0.00
5:15 am 05:15 Clear 55 13 54 12.4 96 96 NW 7 11 30.16 1021 10 16 0.00 0.00
5:35 am 05:35 Clear 56 13.1 54 12.4 96 96 NW 6 9 30.16 1021 10 16 0.00 0.00
5:55 am 05:55 Clear 55 13 54 12.1 94 94 NW 7 11 30.15 1021 10 16 0.00 0.00
6:15 am 06:15 Clear 55 12.8 54 12 95 95 NNW 7 11 30.15 1021 10 16 0.00 0.00
6:35 am 06:35 Clear 55 12.5 53 11.7 95 95 NNW 7 11 30.15 1021 10 16 0.00 0.00
6:55 am 06:55 Sunny 55 12.5 53 11.7 95 95 NNW 8 13 30.13 1020 10 16 0.00 0.00
7:15 am 07:15 Sunny 55 12.5 53 11.8 96 96 NW 6 9 30.13 1020 10 16 0.00 0.00
7:35 am 07:35 Sunny 56 13.1 54 12.2 94 94 WSW 3 6 30.14 1021 10 16 0.00 0.00
7:55 am 07:55 Sunny 57 13.9 55 12.8 93 93 W 5 7 30.15 1021 10 16 0.00 0.00
8:15 am 08:15 Sunny 58 14.3 56 13.2 93 93 WNW 3 6 30.14 1021 10 16 0.00 0.00
8:35 am 08:35 Sunny 60 15.5 57 13.9 90 90 W 5 7 30.13 1020 10 16 0.00 0.00
8:55 am 08:55 Sunny 62 16.4 58 14.2 87 87 NW 5 7 30.13 1020 10 16 0.00 0.00
9:15 am 09:15 Sunny 63 17.4 59 14.8 85 85 NW 3 6 30.12 1020 10 16 0.00 0.00
9:35 am 09:35 Sunny 65 18.3 59 15.1 82 82 Calm 30.12 1020 10 16 0.00 0.00
9:55 am 09:55 Sunny 67 19.5 59 15 75 75 NE 3 6 30.11 1019 10 16 0.00 0.00
10:15 am 10:15 Sunny 70 21.1 59 15 68 68 ENE 9 15 30.09 1019 10 16 0.00 0.00
10:35 am 10:35 Sunny 73 22.6 58 14.2 59 59 NE 9 15 30.08 1019 10 16 0.00 0.00
10:55 am 10:55 Sunny 73 23 58 14.4 58 58 E 9 15 30.08 1018 10 16 0.00 0.00
11:15 am 11:15 Sunny 74 23.2 58 14.2 57 57 ENE 9 15 30.07 1018 10 16 0.00 0.00
11:35 am 11:35 Sunny 74 23.4 58 14.5 57 57 E 10 17 30.08 1019 10 16 0.00 0.00
11:55 am 11:55 Sunny 75 23.9 59 14.9 57 57 E 7 11 30.08 1019 10 16 0.00 0.00
12:15 pm 12:15 Sunny 75 23.9 58 14.4 55 55 E 7 11 30.08 1019 10 16 0.00 0.00
12:35 pm 12:35 Sunny 76 24.4 58 14.4 54 54 E 7 11 30.07 1018 10 16 0.00 0.00
12:55 pm 12:55 Sunny 77 24.9 59 14.8 53 53 ESE 7 11 30.07 1018 10 16 0.00 0.00
1:15 pm 13:15 Sunny 77 25 58 14.6 52 52 ESE 6 9 30.07 1018 10 16 0.00 0.00
1:35 pm 13:35 Sunny 77 25.1 59 15.1 54 54 E 7 11 30.06 1018 10 16 0.00 0.00
1:55 pm 13:55 Sunny 77 24.8 59 14.9 54 54 SE 5 7 30.05 1018 10 16 0.00 0.00
2:15 pm 14:15 Sunny 79 25.9 59 15 51 51 SE 10 17 30.04 1017 10 16 0.00 0.00
2:35 pm 14:35 Sunny 78 25.8 59 14.8 51 51 SSE 3 6 30.04 1017 10 16 0.00 0.00
2:55 pm 14:55 Sunny 79 26.3 58 14.6 49 49 SE 6 9 30.03 1017 10 16 0.00 0.00
3:15 pm 15:15 Sunny 80 26.8 60 15.7 51 51 E 7 11 30.01 1016 10 16 0.00 0.00
3:35 pm 15:35 Sunny 80 26.7 60 15.4 50 50 SSE 6 9 30.01 1016 10 16 0.00 0.00
3:55 pm 15:55 Sunny 80 26.7 60 15.3 50 50 E 3 6 30.01 1016 10 16 0.00 0.00
4:15 pm 16:15 Sunny 81 27.1 58 14.6 46 46 E 3 6 29.99 1016 10 16 0.00 0.00
4:35 pm 16:35 Sunny 81 27.2 60 15.6 49 49 E 5 7 29.98 1015 10 16 0.00 0.00
4:55 pm 16:55 Sunny 81 27 60 15.3 49 49 SE 5 7 29.98 1015 10 16 0.00 0.00
5:15 pm 17:15 Sunny 81 27.2 60 15.8 50 50 S 8 13 29.97 1015 7 11 0.00 0.00
5:35 pm 17:35 Sunny 81 27.2 61 15.9 50 50 SSE 7 11 29.97 1015 10 16 0.00 0.00
5:55 pm 17:55 Sunny 81 27.3 60 15.6 49 49 SE 6 9 29.96 1015 10 16 0.00 0.00
6:15 pm 18:15 Sunny 81 27.3 61 16 50 50 SE 6 9 29.96 1015 10 16 0.00 0.00
6:35 pm 18:35 Sunny 80 26.7 61 15.9 52 52 S 8 13 29.96 1015 10 16 0.00 0.00
6:55 pm 18:55 Sunny 80 26.6 61 16.1 53 53 SE 5 7 29.97 1015 10 16 0.00 0.00
7:15 pm 19:15 Sunny 79 26.2 61 16.3 54 54 SE 6 9 29.96 1015 10 16 0.00 0.00
7:35 pm 19:35 Sunny 78 25.8 62 16.8 58 58 SE 7 11 29.96 1015 10 16 0.00 0.00
7:55 pm 19:55 Sunny 78 25.3 62 16.6 59 59 SSE 7 11 29.97 1015 10 16 0.00 0.00
8:15 pm 20:15 Sunny 76 24.6 62 16.4 60 60 SE 8 13 29.97 1015 10 16 0.00 0.00
8:35 pm 20:35 Sunny 74 23.4 63 17 67 67 SSE 6 9 29.99 1016 10 16 0.00 0.00
8:55 pm 20:55 Clear 72 22 63 17.2 74 74 SSE 7 11 30.00 1016 10 16 0.00 0.00
9:15 pm 21:15 Clear 69 20.8 63 17.3 80 80 SSE 6 9 30.03 1017 10 16 0.00 0.00
9:35 pm 21:35 Clear 68 20.1 64 17.5 85 85 S 5 7 30.04 1017 10 16 0.00 0.00
9:55 pm 21:55 Clear 67 19.6 64 17.7 89 89 S 5 7 30.05 1017 10 16 0.00 0.00
10:15 pm 22:15 Clear 67 19.4 64 17.6 89 89 S 3 6 30.06 1018 10 16 0.00 0.00
10:35 pm 22:35 Clear 67 19.4 64 17.6 89 89 SSE 5 7 30.06 1018 10 16 0.00 0.00
10:55 pm 22:55 Clear 66 19 63 17.2 89 89 SSE 6 9 30.07 1018 10 16 0.00 0.00
11:15 pm 23:15 Clear 65 18.1 63 17 93 93 S 6 9 30.08 1019 10 16 0.00 0.00
11:35 pm 23:35 Clear 65 18.3 63 17 92 92 S 5 7 30.08 1019 10 16 0.00 0.00
11:55 pm 23:55 Clear 64 17.8 62 16.5 92 92 SSE 6 9 30.08 1019 10 16 0.00 0.00

Powered by AerisWeather